This is the latest recevied weather packets stored in our database for station/object DM4XI-13. If no packets are shown the sender has not sent any weather packets the latest 10 day(s).
| Time | Temp. | Humidity | Pressure | Rain* | Wind** | Luminosity | Snow |
|---|---|---|---|---|---|---|---|
| 1777500897 | 6.11° C | 38% | 1025 hPa | 0 mm | 0.89 m/s, 187° | 0 W/m² | - |
| 1777500837 | 6.11° C | 38% | 1025 hPa | 0 mm | 0.45 m/s, 194° | 0 W/m² | - |
| 1777500776 | 6.11° C | 38% | 1025.1 hPa | 0 mm | 0.89 m/s, 189° | 0 W/m² | - |
| 1777500714 | 6.11° C | 38% | 1025 hPa | 0 mm | 0.89 m/s, 166° | 0 W/m² | - |
| 1777500654 | 6.11° C | 38% | 1024.9 hPa | 0 mm | 0.89 m/s, 149° | 0 W/m² | - |
| 1777500592 | 6.11° C | 38% | 1025.1 hPa | 0 mm | 1.34 m/s, 144° | 0 W/m² | - |
| 1777500532 | 6.11° C | 38% | 1024.9 hPa | 0 mm | 0.89 m/s, 205° | 0 W/m² | - |
| 1777500471 | 6.11° C | 38% | 1024.7 hPa | 0 mm | 0.89 m/s, 0° | 0 W/m² | - |
| 1777500409 | 6.11° C | 38% | 1025.1 hPa | 0 mm | 0.45 m/s, 198° | 0 W/m² | - |
| 1777500349 | 6.11° C | 38% | 1024.8 hPa | 0 mm | 0.45 m/s, 359° | 0 W/m² | - |
| 1777500288 | 6.11° C | 38% | 1024.9 hPa | 0 mm | 0.45 m/s, 75° | 0 W/m² | - |
| 1777500228 | 6.11° C | 37% | 1024.9 hPa | 0 mm | 0.45 m/s, 151° | 0 W/m² | - |
| 1777500167 | 6.11° C | 37% | 1024.9 hPa | 0 mm | 0.89 m/s, 58° | 0 W/m² | - |
| 1777500106 | 6.11° C | 37% | 1024.7 hPa | 0 mm | 0.89 m/s, 352° | 0 W/m² | - |
| 1777500045 | 6.11° C | 37% | 1024.9 hPa | 0 mm | 0.89 m/s, 166° | 0 W/m² | - |
| 1777499984 | 6.11° C | 37% | 1024.9 hPa | 0 mm | 2.24 m/s, 74° | 0 W/m² | - |
| 1777499922 | 6.11° C | 37% | 1024.8 hPa | 0 mm | 1.34 m/s, 206° | 0 W/m² | - |
| 1777499862 | 6.11° C | 37% | 1024.8 hPa | 0 mm | 0.45 m/s, 351° | 0 W/m² | - |
| 1777499801 | 6.11° C | 37% | 1024.8 hPa | 0 mm | 0.45 m/s, 136° | 0 W/m² | - |
| 1777499740 | 6.11° C | 37% | 1024.7 hPa | 0 mm | 0.89 m/s, 287° | 0 W/m² | - |
| 1777499679 | 6.11° C | 37% | 1024.7 hPa | 0 mm | 0.89 m/s, 65° | 0 W/m² | - |
| 1777499617 | 6.11° C | 37% | 1025 hPa | 0 mm | 0.45 m/s, 209° | 0 W/m² | - |
| 1777499556 | 6.11° C | 37% | 1024.8 hPa | 0 mm | 1.34 m/s, 185° | 0 W/m² | - |
| 1777499495 | 6.11° C | 37% | 1024.9 hPa | 0 mm | 0.89 m/s, 254° | 0 W/m² | - |
| 1777499434 | 6.11° C | 37% | 1024.8 hPa | 0 mm | 0.45 m/s, 204° | 0 W/m² | - |
* Rain latest hour (hover to see other rain measurements)
** Current wind speed in m/s (hover to see current wind gust speed)